| time (UTC) | temp F | wind direction | speed knots | gust knots | rain 1hr in | rain 24hr in | rain mn in | humidity % | barometer mb |
| 20260504050328 | 51 | 283 | 0.0 | 0.0 | 0.00 | 0.00 | 0.00 | 57 | 1018.8 |
| 20260504045825 | 51 | 292 | 0.9 | 0.9 | 0.00 | 0.00 | 0.00 | 56 | 1018.8 |
| 20260504045320 | 52 | 284 | 0.0 | 0.9 | 0.00 | 0.00 | 0.00 | 54 | 1018.5 |
| 20260504044818 | 52 | 301 | 0.9 | 0.9 | 0.00 | 0.00 | 0.00 | 52 | 1018.5 |
| 20260504044315 | 53 | 296 | 0.0 | 0.9 | 0.00 | 0.00 | 0.00 | 52 | 1018.5 |
| 20260504043812 | 53 | 287 | 0.9 | 1.7 | 0.00 | 0.00 | 0.00 | 51 | 1018.5 |
| 20260504043309 | 52 | 283 | 1.7 | 1.7 | 0.00 | 0.00 | 0.00 | 51 | 1018.4 |
| 20260504042807 | 52 | 306 | 2.6 | 2.6 | 0.00 | 0.00 | 0.00 | 53 | 1018.2 |
| 20260504042304 | 51 | 301 | 0.9 | 1.7 | 0.00 | 0.00 | 0.00 | 54 | 1018.1 |
| 20260504041800 | 51 | 315 | 0.9 | 0.9 | 0.00 | 0.00 | 0.00 | 59 | 1018.3 |
| 20260504041255 | 51 | 321 | 0.9 | 0.9 | 0.00 | 0.00 | 0.00 | 58 | 1018.1 |
| 20260504040752 | 51 | 337 | 1.7 | 1.7 | 0.00 | 0.00 | 0.00 | 57 | 1018.3 |
| 20260504040249 | 51 | 308 | 0.9 | 0.9 | 0.00 | 0.00 | 0.00 | 59 | 1018.5 |
| 20260504035745 | 51 | 301 | 0.9 | 0.9 | 0.00 | 0.00 | 0.00 | 56 | 1018.3 |
| 20260504035242 | 51 | 301 | 1.7 | 1.7 | 0.00 | 0.00 | 0.00 | 55 | 1018.6 |
| 20260504034740 | 51 | 307 | 1.7 | 1.7 | 0.00 | 0.00 | 0.00 | 53 | 1018.3 |
| 20260504034237 | 50 | 300 | 0.9 | 0.9 | 0.00 | 0.00 | 0.00 | 58 | 1018.2 |
| 20260504033734 | 50 | 304 | 1.7 | 1.7 | 0.00 | 0.00 | 0.00 | 56 | 1018.4 |
| 20260504033232 | 50 | 326 | 2.6 | 4.3 | 0.00 | 0.00 | 0.00 | 57 | 1018.3 |
| 20260504032728 | 49 | 295 | 0.9 | 0.9 | 0.00 | 0.00 | 0.00 | 60 | 1018.3 |
| 20260504032226 | 48 | 310 | 0.0 | 0.9 | 0.00 | 0.00 | 0.00 | 62 | 1018.2 |
| 20260504031722 | 48 | 330 | 0.9 | 0.9 | 0.00 | 0.00 | 0.00 | 62 | 1018.1 |
| 20260504031220 | 48 | 299 | 0.9 | 0.9 | 0.00 | 0.00 | 0.00 | 63 | 1018.5 |
| 20260504030715 | 48 | 300 | 0.9 | 0.9 | 0.00 | 0.00 | 0.00 | 62 | 1018.4 |
| 20260504030213 | 48 | 299 | 0.9 | 0.9 | 0.00 | 0.00 | 0.00 | 61 | 1018.3 |
| 20260504025709 | 48 | 305 | 0.9 | 0.9 | 0.00 | 0.00 | 0.00 | 61 | 1018.5 |
| 20260504025206 | 48 | 305 | 0.9 | 0.9 | 0.00 | 0.00 | 0.00 | 60 | 1018.4 |
| 20260504024703 | 48 | 303 | 0.9 | 0.9 | 0.00 | 0.00 | 0.00 | 60 | 1018.5 |
| 20260504024200 | 48 | 307 | 0.0 | 0.9 | 0.00 | 0.00 | 0.00 | 60 | 1018.5 |
| 20260504023656 | 49 | 292 | 0.9 | 0.9 | 0.00 | 0.00 | 0.00 | 59 | 1018.4 |
| 20260504023152 | 49 | 311 | 0.0 | 0.0 | 0.00 | 0.00 | 0.00 | 58 | 1018.6 |
| 20260504022649 | 49 | 300 | 0.9 | 0.9 | 0.00 | 0.00 | 0.00 | 57 | 1018.5 |
| 20260504022144 | 50 | 301 | 0.9 | 1.7 | 0.00 | 0.00 | 0.00 | 56 | 1018.3 |
| 20260504021643 | 50 | 298 | 0.9 | 1.7 | 0.00 | 0.00 | 0.00 | 54 | 1018.3 |
| 20260504021139 | 50 | 328 | 1.7 | 1.7 | 0.00 | 0.00 | 0.00 | 55 | 1018.0 |
| 20260504020636 | 50 | 305 | 0.9 | 0.9 | 0.00 | 0.00 | 0.00 | 57 | 1018.1 |
| 20260504020132 | 50 | 294 | 0.9 | 1.7 | 0.00 | 0.00 | 0.00 | 56 | 1018.2 |
| 20260504015629 | 51 | 281 | 2.6 | 2.6 | 0.00 | 0.00 | 0.00 | 55 | 1018.0 |
| 20260504015125 | 51 | 302 | 1.7 | 1.7 | 0.00 | 0.00 | 0.00 | 53 | 1018.0 |
| 20260504014621 | 51 | 286 | 1.7 | 1.7 | 0.00 | 0.00 | 0.00 | 54 | 1017.9 |
| 20260504014119 | 51 | 265 | 0.9 | 1.7 | 0.00 | 0.00 | 0.00 | 54 | 1017.9 |
| 20260504013616 | 51 | 300 | 1.7 | 1.7 | 0.00 | 0.00 | 0.00 | 53 | 1017.8 |
| 20260504013113 | 51 | 299 | 0.9 | 1.7 | 0.00 | 0.00 | 0.00 | 53 | 1017.6 |
| 20260504012610 | 51 | 298 | 2.6 | 2.6 | 0.00 | 0.00 | 0.00 | 54 | 1017.8 |
| 20260504012108 | 51 | 295 | 0.9 | 0.9 | 0.00 | 0.00 | 0.00 | 54 | 1017.4 |
| 20260504011605 | 51 | 292 | 1.7 | 1.7 | 0.00 | 0.00 | 0.00 | 54 | 1017.6 |
| 20260504011101 | 52 | 291 | 0.9 | 0.9 | 0.00 | 0.00 | 0.00 | 55 | 1017.5 |
| 20260504010556 | 52 | 296 | 0.9 | 0.9 | 0.00 | 0.00 | 0.00 | 55 | 1017.5 |
| 20260504010053 | 52 | 279 | 1.7 | 1.7 | 0.00 | 0.00 | 0.00 | 55 | 1017.5 |
| 20260504005549 | 52 | 302 | 0.9 | 1.7 | 0.00 | 0.00 | 0.00 | 55 | 1017.4 |
| 20260504005047 | 53 | 290 | 1.7 | 1.7 | 0.00 | 0.00 | 0.00 | 55 | 1017.5 |
| 20260504004545 | 53 | 292 | 0.9 | 0.9 | 0.00 | 0.00 | 0.00 | 55 | 1017.2 |
| 20260504004041 | 54 | 301 | 1.7 | 1.7 | 0.00 | 0.00 | 0.00 | 54 | 1017.3 |
| 20260504003537 | 54 | 294 | 0.9 | 0.9 | 0.00 | 0.00 | 0.00 | 53 | 1017.1 |
| 20260504003034 | 55 | 294 | 0.9 | 0.9 | 0.00 | 0.00 | 0.00 | 52 | 1017.1 |
| 20260504002531 | 55 | 316 | 0.9 | 0.9 | 0.00 | 0.00 | 0.00 | 50 | 1017.1 |
| 20260504002029 | 55 | 318 | 0.9 | 0.9 | 0.00 | 0.00 | 0.00 | 51 | 1017.1 |
| 20260504001527 | 56 | 302 | 1.7 | 1.7 | 0.00 | 0.00 | 0.00 | 50 | 1017.0 |
| 20260504001022 | 56 | 298 | 1.7 | 1.7 | 0.00 | 0.00 | 0.00 | 49 | 1017.1 |
| 20260504000520 | 57 | 300 | 1.7 | 1.7 | 0.00 | 0.00 | 0.00 | 46 | 1017.0 |
| 20260504000017 | 58 | 296 | 0.9 | 1.7 | 0.00 | 0.00 | 0.00 | 43 | 1017.1 |
| 20260503235515 | 60 | 285 | 0.9 | 1.7 | 0.00 | 0.00 | 0.00 | 37 | 1016.9 |
| 20260503235012 | 60 | 311 | 0.9 | 1.7 | 0.00 | 0.00 | 0.00 | 36 | 1017.1 |
| 20260503234509 | 60 | 304 | 0.9 | 0.9 | 0.00 | 0.00 | 0.00 | 36 | 1017.2 |
| 20260503234008 | 61 | 287 | 0.9 | 1.7 | 0.00 | 0.00 | 0.00 | 34 | 1017.0 |
| 20260503233503 | 63 | 306 | 0.9 | 0.9 | 0.00 | 0.00 | 0.00 | 31 | 1016.9 |
| 20260503233000 | 64 | 319 | 1.7 | 1.7 | 0.00 | 0.00 | 0.00 | 29 | 1017.2 |
| 20260503232457 | 64 | 327 | 1.7 | 1.7 | 0.00 | 0.00 | 0.00 | 29 | 1017.1 |
| 20260503231955 | 64 | 283 | 1.7 | 1.7 | 0.00 | 0.00 | 0.00 | 29 | 1017.1 |
| 20260503231452 | 65 | 299 | 2.6 | 2.6 | 0.00 | 0.00 | 0.00 | 28 | 1017.2 |
| 20260503230948 | 65 | 296 | 2.6 | 4.3 | 0.00 | 0.00 | 0.00 | 27 | 1017.1 |
| 20260503230445 | 65 | 302 | 1.7 | 2.6 | 0.00 | 0.00 | 0.00 | 28 | 1016.8 |
| 20260503225943 | 65 | 283 | 0.9 | 0.9 | 0.00 | 0.00 | 0.00 | 27 | 1016.8 |
| 20260503225439 | 65 | 151 | 2.6 | 4.3 | 0.00 | 0.00 | 0.00 | 27 | 1016.7 |
| 20260503224935 | 65 | 296 | 0.9 | 1.7 | 0.00 | 0.00 | 0.00 | 27 | 1016.9 |
| 20260503224432 | 65 | 296 | 1.7 | 1.7 | 0.00 | 0.00 | 0.00 | 27 | 1017.0 |
| 20260503223930 | 64 | 313 | 4.3 | 6.1 | 0.00 | 0.00 | 0.00 | 26 | 1017.1 |
| 20260503223427 | 65 | 346 | 7.0 | 8.7 | 0.00 | 0.00 | 0.00 | 27 | 1017.1 |
| 20260503222922 | 65 | 283 | 3.5 | 7.0 | 0.00 | 0.00 | 0.00 | 27 | 1016.9 |
| 20260503222421 | 65 | 276 | 3.5 | 5.2 | 0.00 | 0.00 | 0.00 | 27 | 1017.0 |
| 20260503221919 | 65 | 347 | 3.5 | 5.2 | 0.00 | 0.00 | 0.00 | 26 | 1017.0 |
| 20260503221417 | 65 | 292 | 2.6 | 2.6 | 0.00 | 0.00 | 0.00 | 27 | 1017.1 |
| 20260503220914 | 66 | 318 | 6.1 | 7.0 | 0.00 | 0.00 | 0.00 | 27 | 1017.0 |
| 20260503220410 | 66 | 306 | 2.6 | 5.2 | 0.00 | 0.00 | 0.00 | 27 | 1017.0 |
| 20260503215908 | 66 | 304 | 1.7 | 1.7 | 0.00 | 0.00 | 0.00 | 28 | 1017.2 |
| 20260503215404 | 66 | 257 | 3.5 | 5.2 | 0.00 | 0.00 | 0.00 | 27 | 1017.2 |
| 20260503214902 | 66 | 191 | 2.6 | 4.3 | 0.00 | 0.00 | 0.00 | 27 | 1017.1 |
| 20260503214359 | 66 | 254 | 1.7 | 1.7 | 0.00 | 0.00 | 0.00 | 27 | 1017.0 |
| 20260503213856 | 65 | 311 | 1.7 | 2.6 | 0.00 | 0.00 | 0.00 | 28 | 1017.3 |
| 20260503213354 | 66 | 5 | 5.2 | 6.1 | 0.00 | 0.00 | 0.00 | 27 | 1017.3 |
| 20260503212850 | 66 | 28 | 1.7 | 5.2 | 0.00 | 0.00 | 0.00 | 27 | 1017.4 |
| 20260503212349 | 65 | 165 | 3.5 | 5.2 | 0.00 | 0.00 | 0.00 | 28 | 1017.4 |
| 20260503211845 | 65 | 284 | 2.6 | 4.3 | 0.00 | 0.00 | 0.00 | 28 | 1017.2 |
| 20260503211342 | 65 | 218 | 2.6 | 2.6 | 0.00 | 0.00 | 0.00 | 28 | 1017.3 |
| 20260503210837 | 65 | 287 | 5.2 | 7.0 | 0.00 | 0.00 | 0.00 | 28 | 1017.4 |
| 20260503210335 | 65 | 133 | 4.3 | 5.2 | 0.00 | 0.00 | 0.00 | 29 | 1017.4 |
| 20260503205830 | 64 | 180 | 7.0 | 8.7 | 0.00 | 0.00 | 0.00 | 28 | 1017.4 |
| 20260503205327 | 65 | 169 | 4.3 | 6.1 | 0.00 | 0.00 | 0.00 | 28 | 1017.6 |
| 20260503204823 | 64 | 236 | 2.6 | 2.6 | 0.00 | 0.00 | 0.00 | 29 | 1017.6 |
| 20260503204321 | 65 | 178 | 3.5 | 6.1 | 0.00 | 0.00 | 0.00 | 28 | 1017.5 |
| 20260503203818 | 66 | 325 | 3.5 | 4.3 | 0.00 | 0.00 | 0.00 | 27 | 1017.7 |
| 20260503203315 | 66 | 189 | 4.3 | 5.2 | 0.00 | 0.00 | 0.00 | 28 | 1017.6 |
| 20260503202812 | 64 | 289 | 0.9 | 1.7 | 0.00 | 0.00 | 0.00 | 28 | 1017.5 |
| 20260503202310 | 64 | 337 | 2.6 | 5.2 | 0.00 | 0.00 | 0.00 | 28 | 1018.0 |
| 20260503201808 | 64 | 247 | 1.7 | 1.7 | 0.00 | 0.00 | 0.00 | 29 | 1017.8 |
| 20260503201305 | 65 | 300 | 2.6 | 2.6 | 0.00 | 0.00 | 0.00 | 27 | 1017.7 |
| 20260503200802 | 65 | 295 | 2.6 | 4.3 | 0.00 | 0.00 | 0.00 | 28 | 1018.0 |
| 20260503200257 | 64 | 294 | 2.6 | 4.3 | 0.00 | 0.00 | 0.00 | 30 | 1017.9 |
| 20260503195755 | 64 | 148 | 4.3 | 6.1 | 0.00 | 0.00 | 0.00 | 29 | 1018.1 |
| 20260503195252 | 63 | 282 | 1.7 | 1.7 | 0.00 | 0.00 | 0.00 | 30 | 1018.4 |
| 20260503194749 | 64 | 273 | 1.7 | 2.6 | 0.00 | 0.00 | 0.00 | 30 | 1018.3 |
| 20260503194245 | 65 | 263 | 3.5 | 4.3 | 0.00 | 0.00 | 0.00 | 29 | 1018.4 |
| 20260503193741 | 64 | 348 | 3.5 | 4.3 | 0.00 | 0.00 | 0.00 | 29 | 1018.5 |
| 20260503193237 | 64 | 336 | 2.6 | 2.6 | 0.00 | 0.00 | 0.00 | 29 | 1018.5 |
| 20260503192733 | 62 | 193 | 1.7 | 1.7 | 0.00 | 0.00 | 0.00 | 33 | 1018.4 |
| 20260503192228 | 62 | 11 | 0.9 | 0.9 | 0.00 | 0.00 | 0.00 | 34 | 1018.5 |
| 20260503191726 | 63 | 189 | 4.3 | 5.2 | 0.00 | 0.00 | 0.00 | 31 | 1018.7 |
| 20260503191222 | 63 | 314 | 3.5 | 4.3 | 0.00 | 0.00 | 0.00 | 30 | 1018.8 |
| 20260503190720 | 62 | 200 | 1.7 | 1.7 | 0.00 | 0.00 | 0.00 | 32 | 1018.8 |
| 20260503190216 | 62 | 292 | 0.9 | 0.9 | 0.00 | 0.00 | 0.00 | 29 | 1018.7 |
| 20260503185714 | 62 | 287 | 4.3 | 5.2 | 0.00 | 0.00 | 0.00 | 29 | 1019.4 |
| 20260503185209 | 62 | 276 | 3.5 | 5.2 | 0.00 | 0.00 | 0.00 | 30 | 1019.0 |
| 20260503184703 | 62 | 266 | 5.2 | 7.0 | 0.00 | 0.00 | 0.00 | 29 | 1019.3 |
| 20260503184200 | 62 | 314 | 7.0 | 9.6 | 0.00 | 0.00 | 0.00 | 28 | 1019.4 |
| 20260503183656 | 63 | 305 | 3.5 | 4.3 | 0.00 | 0.00 | 0.00 | 31 | 1019.6 |
| 20260503183154 | 61 | 282 | 1.7 | 1.7 | 0.00 | 0.00 | 0.00 | 30 | 1019.7 |
| 20260503182652 | 61 | 321 | 2.6 | 2.6 | 0.00 | 0.00 | 0.00 | 30 | 1019.7 |
| 20260503182150 | 61 | 286 | 6.1 | 7.0 | 0.00 | 0.00 | 0.00 | 31 | 1019.9 |
| 20260503181646 | 61 | 275 | 5.2 | 7.0 | 0.00 | 0.00 | 0.00 | 32 | 1019.8 |
| 20260503181143 | 60 | 221 | 4.3 | 6.1 | 0.00 | 0.00 | 0.00 | 33 | 1019.8 |
| 20260503180640 | 61 | 307 | 2.6 | 4.3 | 0.00 | 0.00 | 0.00 | 33 | 1020.0 |
| 20260503180138 | 60 | 318 | 1.7 | 4.3 | 0.00 | 0.00 | 0.00 | 34 | 1020.1 |
| 20260503175635 | 61 | 286 | 1.7 | 1.7 | 0.00 | 0.00 | 0.00 | 33 | 1020.1 |
| 20260503175132 | 60 | 325 | 1.7 | 2.6 | 0.00 | 0.00 | 0.00 | 34 | 1020.0 |
| 20260503174629 | 59 | 287 | 4.3 | 5.2 | 0.00 | 0.00 | 0.00 | 34 | 1020.1 |
| 20260503174126 | 60 | 45 | 0.0 | 0.9 | 0.00 | 0.00 | 0.00 | 36 | 1020.1 |
| 20260503173621 | 60 | 73 | 4.3 | 5.2 | 0.00 | 0.00 | 0.00 | 36 | 1020.2 |
| 20260503173117 | 58 | 296 | 2.6 | 4.3 | 0.00 | 0.00 | 0.00 | 35 | 1020.2 |
| 20260503172615 | 58 | 327 | 4.3 | 5.2 | 0.00 | 0.00 | 0.00 | 35 | 1020.5 |
| 20260503172112 | 59 | 270 | 2.6 | 4.3 | 0.00 | 0.00 | 0.00 | 35 | 1020.6 |
| 20260503171609 | 58 | 197 | 5.2 | 8.7 | 0.00 | 0.00 | 0.00 | 35 | 1020.7 |
| 20260503171106 | 58 | 294 | 1.7 | 1.7 | 0.00 | 0.00 | 0.00 | 38 | 1020.7 |
| 20260503170603 | 56 | 279 | 1.7 | 1.7 | 0.00 | 0.00 | 0.00 | 40 | 1020.9 |
| 20260503150954 | 52 | 346 | 2.6 | 5.2 | 0.00 | 0.00 | 0.00 | 42 | 1022.0 |
| 20260503150451 | 51 | 347 | 4.3 | 6.1 | 0.00 | 0.00 | 0.00 | 44 | 1022.0 |
| 20260503131344 | 47 | 277 | 1.7 | 1.7 | 0.00 | 0.00 | 0.00 | 50 | 1022.0 |
| 20260503130841 | 46 | 298 | 3.5 | 4.3 | 0.00 | 0.00 | 0.00 | 53 | 1021.7 |
| 20260503130339 | 46 | 342 | 3.5 | 4.3 | 0.00 | 0.00 | 0.00 | 52 | 1021.7 |
| 20260503110733 | 38 | 322 | 0.0 | 0.0 | 0.00 | 0.00 | 0.00 | 80 | 1020.7 |
| 20260503110230 | 38 | 305 | 0.0 | 0.0 | 0.00 | 0.00 | 0.00 | 79 | 1020.7 |
| 20260503100156 | 37 | 320 | 0.9 | 0.9 | 0.00 | 0.00 | 0.00 | 83 | 1019.9 |
| 20260503090115 | 37 | 315 | 1.7 | 1.7 | 0.00 | 0.00 | 0.00 | 84 | 1018.8 |
| 20260503081551 | 38 | 312 | 0.9 | 1.7 | 0.00 | 0.00 | 0.00 | 82 | 1018.5 |
| 20260503081048 | 38 | 310 | 0.9 | 0.9 | 0.00 | 0.00 | 0.00 | 82 | 1018.5 |
| 20260503080544 | 38 | 310 | 0.0 | 0.0 | 0.00 | 0.00 | 0.00 | 82 | 1018.3 |
| 20260503072518 | 39 | 311 | 0.9 | 0.9 | 0.00 | 0.00 | 0.00 | 80 | 1018.2 |
| 20260503072015 | 39 | 299 | 0.9 | 0.9 | 0.00 | 0.00 | 0.00 | 81 | 1018.1 |
| 20260503071512 | 40 | 312 | 0.0 | 0.9 | 0.00 | 0.00 | 0.00 | 80 | 1018.0 |
| 20260503071008 | 40 | 314 | 0.0 | 0.0 | 0.00 | 0.00 | 0.00 | 80 | 1017.9 |
| 20260503070505 | 40 | 329 | 0.0 | 0.0 | 0.00 | 0.00 | 0.00 | 80 | 1018.0 |